Kaneohe MCBH, HI

10:56 AM HST on March 24, 2017 (GMT -1000)
Kaneohe Bay Marine Corps Air Facility

Weather History for PHNG - October, 2013

Change the Weather History Date:

Tuesday, October 15, 2013

  Actual Average Record
Temperature  
Mean Temperature 78 °F -  
Max Temperature 82 °F 81 °F 87 °F (2014)
Min Temperature 74 °F 72 °F 71 °F (1999)
Cooling Degree Days 13    
Growing Degree Days 28 (Base 50)    
Moisture  
Dew Point 69 °F    
Average Humidity 73    
Maximum Humidity 86    
Minimum Humidity 59    
Precipitation  
Precipitation 0.00 in - - ()
Sea Level Pressure  
Sea Level Pressure 29.96 in    
Wind  
Wind Speed 3 mph (ENE)    
Max Wind Speed 9 mph    
Max Gust Speed -    
Visibility 8 miles    
Events Rain    
Averages and records for this station are not official NWS values.
T = Trace of Precipitation, MM = Missing Value Source: NWS Daily Summary

Daily Weather History Graph

Daily Weather History Graph

Search for Another Location

Airport or City:

Trip Planner

Search our weather history database for the weather conditions in past years. The results will help you decide how hot, cold, wet, or windy it might be!

Date:

Astronomy

Oct. 15, 2013 Rise Set
Actual Time 6:27 AM HST 6:06 PM HST
Civil Twilight 6:04 AM HST 6:28 PM HST
Nautical Twilight 5:38 AM HST 6:54 PM HST
Astronomical Twilight 5:12 AM HST 7:20 PM HST
Moon 3:59 PM HST (10/15) 3:24 AM HST (10/15)
Length of Visible Light 12h 23m
Length of Day
11h 39m
Waxing Gibbous, 89% of the Moon is Illuminated
Oct 15
Waxing Gibbous
Oct 18
Full
Oct 26
Last Quarter
Nov 3
New
Nov 9
First Quarter

Hourly Weather History & Observations

Time (HST) Temp. Heat Index Dew Point Humidity Pressure Visibility Wind Dir Wind Speed Gust Speed Precip Events Conditions
12:57 AM 74.8 °F - 68.0 °F 79% 29.96 in 10.0 mi Calm Calm - N/A   Partly Cloudy
1:57 AM 75.7 °F - 68.0 °F 77% 29.94 in 10.0 mi Calm Calm - N/A   Partly Cloudy
2:57 AM 76.6 °F - 68.0 °F 75% 29.93 in 10.0 mi Calm Calm - N/A   Scattered Clouds
3:57 AM 76.6 °F - 68.0 °F 75% 29.92 in 10.0 mi Calm Calm - N/A   Partly Cloudy
4:57 AM 77.5 °F - 72.0 °F 83% 29.93 in 10.0 mi Calm Calm - N/A   Clear
5:57 AM 77.5 °F - 70.0 °F 77% 29.93 in 10.0 mi Calm Calm - N/A   Partly Cloudy
6:57 AM 77.5 °F - 70.0 °F 77% 29.94 in 9.0 mi Calm Calm - N/A   Partly Cloudy
7:57 AM 77.5 °F - 70.0 °F 77% 29.96 in 10.0 mi Calm Calm - N/A   Scattered Clouds
8:57 AM 77.5 °F - 73.0 °F 86% 29.98 in 10.0 mi Calm Calm - N/A   Mostly Cloudy
9:07 AM 78.8 °F - 69.8 °F 74% 30.00 in 6.2 mi North 5.8 mph - N/A   Mostly Cloudy
9:30 AM 78.8 °F - 69.8 °F 74% 30.00 in 6.2 mi NNE 4.6 mph - N/A   Scattered Clouds
9:57 AM 80.6 °F 83.9 °F 70.0 °F 70% 29.98 in 9.0 mi NNE 6.9 mph - N/A   Mostly Cloudy
10:57 AM 80.6 °F 83.9 °F 70.0 °F 70% 29.97 in 10.0 mi NE 6.9 mph - N/A   Clear
11:57 AM 82.4 °F 86.3 °F 70.0 °F 66% 29.95 in 10.0 mi ENE 8.1 mph - N/A   Clear
12:57 PM 82.4 °F 85.8 °F 69.1 °F 64% 29.93 in 10.0 mi NE 9.2 mph - N/A   Partly Cloudy
1:57 PM 80.6 °F 83.6 °F 69.1 °F 68% 29.90 in 10.0 mi NE 9.2 mph - N/A   Partly Cloudy
2:57 PM 80.6 °F 83.6 °F 69.1 °F 68% 29.90 in 7.0 mi ENE 5.8 mph - N/A   Clear
3:57 PM 82.4 °F 85.4 °F 68.0 °F 62% 29.91 in 7.0 mi ENE 5.8 mph - N/A   Clear
4:57 PM 82.4 °F 85.8 °F 69.1 °F 64% 29.92 in 7.0 mi ENE 4.6 mph - N/A   Scattered Clouds
5:57 PM 82.4 °F 84.8 °F 66.9 °F 59% 29.94 in 7.0 mi East 3.5 mph - N/A Rain Light Rain
6:57 PM 80.6 °F 82.9 °F 66.9 °F 63% 29.95 in 10.0 mi Calm Calm - N/A   Partly Cloudy
7:57 PM 77.0 °F - 68.0 °F 74% 29.97 in 10.0 mi Variable 6.9 mph - N/A   Partly Cloudy
8:47 PM 77.0 °F - 68.0 °F 74% 29.99 in 6.2 mi ENE 6.9 mph - N/A   Mostly Cloudy
8:57 PM 77.0 °F - 68.0 °F 74% 29.99 in 9.0 mi East 8.1 mph - N/A   Mostly Cloudy
9:05 PM 77.0 °F - 68.0 °F 74% 30.00 in 6.2 mi East 6.9 mph - N/A   Scattered Clouds
9:57 PM 77.0 °F - 68.0 °F 74% 29.99 in 9.0 mi East 3.5 mph - N/A   Scattered Clouds
10:19 PM - - - N/A% 30.00 in 6.2 mi Variable 3.5 mph - N/A   Mostly Cloudy
10:34 PM 77.0 °F - 69.8 °F 78% 29.99 in 6.2 mi Variable 3.5 mph - N/A   Scattered Clouds
10:57 PM 77.0 °F - 69.1 °F 76% 29.97 in 7.0 mi ESE 5.8 mph - N/A   Mostly Cloudy
11:09 PM - - - N/A% 29.98 in 6.2 mi East 8.1 mph - N/A   Mostly Cloudy
11:57 PM 77.0 °F - 68.0 °F 74% 29.97 in 10.0 mi Calm Calm - N/A   Partly Cloudy